Wind_Speed
6 7 8 8 8 8 8 8 8 8 7 7 7 7 7 7 7 7 6 6 6 5 5 6 7 7 8 8 8 7 6 6 6 5 5 4 4 4 4 4 5 5 6
7 8 9 9 9 9 8 9 8 8 7 8 8 7 8 7 7 7 7 6 6 5 6 7 7 8 8 7 7 6 6 6 6 5 4 5 5 5 5 5 5 5 5
7 8 9 9 9 9 9 8 8 8 8 8 8 9 9 8 8 7 7 7 6 6 6 6 7 8 8 8 7 6 6 6 6 6 5 6 6 5 5 5 5 5 5
8 8 9 9 9 9 9 8 8 8 8 8 8 8 9 8 8 7 7 7 6 6 6 6 7 8 8 8 7 6 6 5 5 6 6 6 6 6 5 5 6 5 5
8 9 9 9 9 9 9 8 8 8 8 8 8 8 8 8 8 7 6 6 7 7 6 6 7 7 7 7 6 6 5 5 5 5 5 6 6 5 5 5 5 5 4
9 9 10 10 10 10 9 8 7 7 8 8 8 8 8 8 7 6 6 6 6 6 6 6 6 6 7 6 5 5 5 5 5 5 5 5 4 4 5 4 4 4 4
9 10 10 10 10 9 9 8 8 8 8 8 8 8 7 7 6 6 5 6 6 6 6 6 6 6 6 5 5 4 4 4 4 4 4 4 4 4 4 4 4 3 3
9 9 10 10 10 10 9 8 8 8 8 7 7 7 6 6 6 6 5 6 6 5 5 5 6 6 5 5 4 4 4 4 3 3 4 4 3 3 3 3 3 3 3
9 9 10 10 10 9 9 9 8 8 8 7 7 7 6 6 6 5 5 5 5 5 5 5 5 5 5 4 4 4 3 3 4 3 3 3 3 3 2 2 2 2 2
10 9 9 10 9 9 8 8 8 7 7 7 7 7 6 6 6 5 5 5 4 4 4 5 5 5 5 4 4 3 3 3 3 3 2 2 2 2 1 1 1 1 1
10 10 9 9 9 9 9 9 8 8 7 7 7 7 7 7 7 6 6 5 5 5 5 5 5 4 5 4 4 3 3 2 2 2 3 2 2 1 1 1 1 1 1
11 11 10 9 10 9 10 10 9 9 8 8 8 7 8 7 7 6 6 6 6 6 6 5 4 4 4 4 3 3 3 3 3 2 2 2 1 1 0 1 2 1 1
12 12 11 10 10 9 10 9 8 9 8 8 8 7 8 8 7 6 6 6 6 5 5 5 4 4 3 3 3 3 3 3 2 2 1 1 1 1 1 1 1 1 1
12 12 12 11 11 10 9 9 9 9 8 7 7 7 7 7 7 6 6 6 6 5 5 4 3 3 2 3 2 2 2 3 2 2 1 1 1 1 1 1 2 2 2
11 11 11 11 11 11 10 9 9 9 9 8 7 7 7 7 7 6 6 6 6 5 5 4 3 2 2 2 2 2 2 2 2 2 2 1 1 1 2 2 2 2 3
10 10 10 10 10 10 10 9 8 8 8 8 8 7 7 7 6 6 5 5 5 4 4 3 2 2 2 1 1 1 1 1 2 2 2 2 1 2 3 3 3 3 4
9 8 8 9 9 9 9 9 8 7 7 7 7 7 6 6 5 5 4 4 4 3 3 3 2 1 1 1 1 1 1 1 2 2 2 2 2 2 3 4 4 4 5
7 7 7 8 8 7 7 7 7 6 5 6 5 5 5 5 5 4 3 3 3 3 3 3 2 2 1 1 1 1 1 2 2 2 2 2 2 3 4 4 5 5 6
6 6 6 6 6 6 6 6 6 6 5 4 4 4 3 3 2 2 2 2 2 2 2 2 2 1 1 0 1 1 2 2 3 2 3 3 4 4 4 5 5 6 7
6 6 5 5 5 5 5 5 5 4 5 4 3 2 2 2 1 1 1 2 2 1 1 1 1 1 1 1 1 2 2 3 4 4 4 5 5 6 6 6 7 8 8
4 5 5 5 5 4 3 3 3 3 3 3 3 2 1 1 1 1 1 1 0 1 1 1 2 2 3 3 3 3 4 5 5 6 6 7 7 8 8 8 8 9 9
2 3 3 4 4 4 3 2 2 2 2 2 2 1 1 1 0 1 1 1 1 1 2 3 3 3 4 4 4 5 6 7 6 7 7 8 8 8 9 9 10 10 11
2 2 2 3 4 3 3 2 1 1 1 1 1 1 1 1 1 2 2 2 2 3 3 4 4 5 5 5 6 7 7 7 8 8 9 9 9 9 10 11 11 12 12
4 3 3 3 4 4 3 3 2 1 1 1 2 2 2 2 2 3 3 4 4 4 5 4 4 5 6 7 7 8 9 9 9 9 10 10 10 11 11 12 12 13 13
5 5 5 5 5 5 5 4 3 3 3 3 3 4 4 4 3 4 4 5 5 6 6 6 7 7 7 8 9 10 10 11 11 11 11 12 12 12 12 12 13 14 14
7 6 7 7 6 6 6 6 5 5 5 5 5 5 5 5 4 5 6 6 7 7 7 8 8 9 9 10 10 11 12 12 12 12 12 13 13 13 13 14 14 15 15
Wind_Direction
75 73 77 75 74 84 95 99 101 100 96 91 93 94 93 94 97 93 93 94 94 104 109 109 106 110 109 106 100 102 100 95 95 95 98 97 98 103 110 114 116 116 116
73 74 76 74 76 81 89 97 96 98 94 91 88 91 91 94 97 96 91 89 95 104 107 105 107 112 109 104 100 99 99 101 95 90 93 94 97 96 101 114 120 121 121
77 79 80 77 79 79 83 88 89 90 92 92 90 92 93 96 97 97 91 90 94 103 103 96 101 107 105 103 103 99 98 98 90 85 90 97 97 96 97 107 119 122 123
82 83 82 80 79 80 80 80 85 89 92 94 95 94 95 97 99 99 93 92 92 96 98 91 99 105 102 101 103 101 97 93 88 84 87 95 96 94 96 101 109 119 121
83 84 83 80 77 79 82 85 90 93 98 99 96 93 93 95 96 97 95 90 91 94 95 95 101 103 100 98 98 97 94 93 90 84 85 91 93 92 95 100 102 111 118
87 87 84 81 80 81 80 85 91 98 102 100 98 96 94 96 96 96 94 88 90 91 93 97 101 104 105 105 104 95 95 101 102 96 95 94 93 95 97 96 93 103 111
86 86 86 83 82 81 83 84 88 99 104 104 100 100 98 96 94 92 92 91 93 93 94 95 107 106 103 98 97 91 96 102 106 107 108 101 97 97 98 101 101 106 111
87 87 83 82 85 85 84 83 88 95 101 102 99 98 98 97 97 95 95 96 96 94 92 95 99 100 95 91 89 93 99 100 107 108 114 113 108 103 106 117 121 125 133
86 85 81 82 83 84 83 82 87 92 96 100 100 101 103 102 103 97 94 93 97 95 94 94 99 98 94 89 87 88 88 94 101 107 119 121 110 97 103 128 140 136 143
84 83 83 83 81 82 81 83 88 93 97 99 101 101 100 98 96 93 89 91 97 100 95 94 95 95 93 90 84 83 87 88 102 107 112 111 106 89 94 139 155 159 162
82 82 81 81 78 80 81 83 88 93 99 104 105 100 99 96 92 91 88 88 95 98 97 99 99 92 91 87 80 82 87 84 95 97 103 99 87 79 103 173 180 186 189
79 78 77 80 76 80 82 83 85 93 97 102 102 102 101 97 94 93 91 88 92 95 99 96 97 92 88 90 84 89 89 79 81 87 96 87 85 68 89 240 260 257 272
78 79 77 76 75 81 83 84 87 93 93 98 99 97 94 91 89 95 95 92 93 90 88 91 98 100 96 80 82 83 81 67 59 66 70 50 42 19 3 323 297 298 311
78 78 77 76 74 79 83 84 91 94 94 97 99 96 96 94 91 98 97 93 93 84 84 87 99 111 105 83 85 85 76 63 52 43 18 356 350 349 341 320 305 302 301
78 77 78 79 76 76 84 86 93 94 95 95 98 100 101 104 102 99 92 92 87 80 83 91 103 121 123 96 90 85 79 62 38 25 13 355 322 300 302 305 307 302 308
76 76 77 77 72 69 77 85 89 92 93 92 94 102 106 104 98 95 91 87 76 72 78 88 104 106 108 111 97 80 62 16 353 357 355 345 326 303 307 305 301 306 309
71 71 70 71 68 67 71 78 83 86 89 89 94 100 109 104 96 98 89 72 66 63 71 81 77 98 101 96 63 24 14 347 337 331 343 343 334 318 311 303 295 298 308
63 65 65 66 67 68 71 72 75 80 88 91 95 96 101 102 96 89 84 70 66 64 60 55 60 80 88 68 353 349 338 332 329 332 331 329 325 319 309 306 299 297 299
57 60 57 59 61 64 67 67 64 67 78 89 97 98 97 100 91 88 91 70 70 66 52 49 50 58 64 28 345 342 324 306 312 325 323 307 299 299 303 306 305 303 303
54 54 52 51 50 54 59 63 64 67 64 64 76 117 105 103 102 117 104 84 64 58 48 28 16 360 317 286 301 302 308 300 299 300 304 301 299 292 291 296 300 300 304
44 43 47 43 36 40 52 59 62 64 66 56 57 86 129 109 111 125 99 40 354 283 287 319 336 332 317 298 291 290 297 300 298 293 296 297 297 299 298 299 302 301 301
21 34 32 24 23 24 27 34 57 61 63 54 47 45 17 347 17 61 37 348 309 301 302 305 305 304 307 299 288 286 291 301 305 296 296 298 299 298 300 301 301 300 299
301 321 349 359 359 354 349 342 5 38 15 17 8 342 325 321 294 306 295 312 299 293 286 279 277 287 293 292 289 291 297 299 298 297 294 296 297 298 299 301 301 301 300
282 280 302 317 322 319 314 312 293 272 298 316 317 302 290 291 290 296 297 297 305 296 288 285 284 288 288 291 295 295 294 294 292 293 295 294 296 295 296 298 298 301 299
280 279 284 290 290 291 289 285 279 273 277 282 284 280 274 276 287 296 298 292 291 291 287 288 287 286 285 287 291 294 296 293 292 291 293 294 293 293 293 294 296 298 299
283 284 287 285 276 276 277 275 273 276 277 275 274 273 272 274 281 291 299 297 296 292 287 284 286 287 287 288 290 289 290 292 291 289 289 290 289 289 290 292 295 296 297
Height
5875 5875 5875 5875 5874 5874 5874 5875 5877 5878 5879 5879 5880 5881 5882 5882 5883 5884 5884 5884 5885 5885 5886 5887 5888 5889 5890 5890 5891 5892 5892 5893 5893 5893 5893 5893 5894 5894 5894 5895 5895 5895 5896
5877 5877 5876 5876 5876 5875 5876 5877 5878 5879 5880 5880 5881 5881 5882 5883 5884 5885 5885 5885 5885 5886 5887 5888 5889 5889 5891 5891 5892 5893 5893 5894 5894 5894 5894 5894 5894 5895 5895 5895 5896 5896 5896
5878 5878 5878 5878 5878 5878 5878 5878 5879 5880 5881 5881 5882 5882 5883 5884 5885 5886 5886 5887 5887 5887 5888 5889 5890 5890 5891 5892 5893 5894 5894 5894 5895 5895 5895 5895 5895 5895 5895 5896 5896 5896 5897
5880 5879 5879 5879 5879 5879 5879 5879 5880 5881 5882 5882 5883 5883 5884 5885 5886 5886 5887 5888 5888 5889 5889 5890 5891 5891 5892 5893 5893 5894 5895 5895 5895 5896 5896 5896 5896 5896 5896 5897 5897 5897 5897
5881 5880 5880 5880 5880 5880 5880 5881 5881 5882 5882 5883 5884 5885 5885 5886 5887 5887 5888 5889 5889 5890 5890 5891 5892 5893 5893 5894 5894 5895 5895 5896 5896 5897 5897 5897 5897 5897 5898 5898 5898 5898 5898
5882 5882 5882 5881 5881 5881 5881 5882 5882 5883 5883 5884 5885 5886 5886 5887 5887 5888 5889 5890 5890 5891 5891 5892 5892 5893 5894 5895 5895 5896 5896 5897 5897 5897 5897 5898 5898 5898 5898 5898 5898 5898 5898
5883 5883 5883 5883 5882 5882 5882 5883 5883 5883 5884 5885 5886 5886 5887 5888 5888 5889 5890 5890 5891 5892 5892 5892 5893 5894 5894 5895 5896 5896 5897 5897 5898 5898 5898 5898 5899 5899 5899 5899 5899 5899 5899
5885 5885 5884 5884 5883 5883 5883 5883 5884 5884 5885 5886 5886 5887 5888 5889 5889 5890 5890 5891 5892 5892 5893 5893 5894 5894 5895 5895 5896 5897 5897 5898 5898 5898 5899 5899 5899 5899 5899 5899 5899 5899 5899
5886 5886 5885 5885 5885 5885 5884 5884 5885 5885 5886 5886 5887 5888 5888 5889 5890 5891 5891 5892 5892 5893 5893 5894 5894 5895 5895 5896 5897 5897 5897 5897 5898 5899 5899 5899 5899 5899 5899 5899 5899 5899 5899
5887 5887 5887 5887 5886 5886 5886 5885 5885 5886 5886 5887 5888 5889 5889 5890 5891 5891 5892 5892 5893 5893 5894 5894 5895 5895 5896 5896 5897 5897 5897 5898 5898 5898 5899 5899 5899 5899 5899 5899 5899 5899 5899
5889 5889 5888 5888 5888 5887 5887 5886 5886 5887 5887 5889 5889 5890 5890 5891 5892 5892 5893 5893 5893 5894 5894 5895 5896 5895 5896 5897 5897 5898 5898 5898 5898 5898 5898 5899 5899 5899 5899 5899 5899 5899 5899
5891 5891 5890 5890 5889 5889 5888 5888 5888 5888 5889 5890 5891 5891 5891 5892 5893 5893 5893 5894 5894 5894 5895 5896 5896 5896 5897 5897 5897 5898 5898 5898 5898 5898 5898 5898 5899 5899 5899 5899 5899 5899 5899
5893 5893 5892 5892 5891 5891 5890 5890 5890 5890 5890 5891 5892 5892 5893 5893 5893 5894 5894 5895 5895 5895 5896 5896 5896 5897 5897 5898 5898 5898 5898 5898 5899 5898 5898 5898 5898 5898 5898 5899 5899 5899 5899
5896 5895 5895 5894 5893 5893 5892 5892 5892 5892 5892 5893 5893 5893 5894 5894 5894 5894 5895 5895 5896 5896 5896 5896 5897 5897 5898 5898 5898 5898 5898 5898 5899 5898 5898 5898 5898 5898 5898 5898 5898 5898 5898
5898 5897 5897 5896 5895 5895 5894 5894 5894 5894 5894 5894 5894 5895 5895 5895 5895 5896 5896 5896 5896 5896 5897 5897 5897 5897 5898 5898 5898 5898 5899 5899 5899 5899 5898 5898 5898 5898 5898 5897 5897 5897 5897
5900 5899 5899 5898 5897 5897 5896 5895 5895 5895 5895 5895 5895 5896 5896 5896 5896 5897 5897 5897 5897 5897 5897 5897 5897 5897 5898 5898 5898 5898 5898 5899 5899 5899 5898 5898 5897 5897 5897 5897 5897 5897 5896
5902 5901 5900 5900 5899 5898 5897 5897 5897 5897 5896 5896 5896 5897 5897 5897 5897 5897 5898 5898 5898 5898 5898 5898 5898 5898 5898 5898 5898 5898 5898 5898 5898 5898 5898 5897 5897 5897 5897 5896 5896 5896 5895
5903 5902 5902 5901 5900 5900 5899 5899 5898 5898 5897 5897 5897 5898 5898 5898 5898 5898 5898 5898 5898 5898 5898 5898 5898 5898 5898 5898 5898 5898 5898 5897 5897 5897 5897 5897 5896 5896 5896 5895 5895 5894 5893
5904 5903 5903 5902 5902 5901 5900 5900 5899 5899 5898 5898 5898 5898 5898 5898 5898 5898 5898 5898 5898 5898 5898 5898 5898 5898 5898 5898 5898 5897 5897 5897 5897 5896 5896 5896 5895 5895 5895 5894 5894 5893 5892
5905 5904 5904 5903 5903 5902 5901 5900 5900 5900 5899 5899 5898 5898 5899 5899 5899 5899 5899 5898 5898 5898 5898 5898 5898 5898 5898 5898 5897 5897 5897 5896 5896 5896 5896 5895 5894 5894 5893 5893 5892 5891 5890
5905 5905 5904 5903 5903 5902 5901 5901 5900 5900 5900 5899 5899 5899 5899 5899 5899 5899 5899 5898 5898 5898 5898 5898 5898 5897 5897 5896 5896 5896 5896 5895 5895 5895 5894 5894 5893 5892 5892 5891 5890 5890 5889
5906 5905 5904 5903 5903 5902 5902 5901 5901 5900 5900 5900 5899 5899 5899 5899 5899 5899 5898 5898 5898 5897 5897 5897 5897 5897 5896 5896 5895 5895 5895 5895 5893 5893 5893 5892 5891 5891 5890 5889 5888 5887 5886
5905 5905 5904 5903 5903 5902 5901 5901 5901 5900 5900 5899 5899 5899 5899 5899 5899 5898 5898 5897 5897 5896 5896 5896 5896 5896 5895 5895 5894 5894 5894 5893 5892 5892 5891 5890 5889 5889 5888 5887 5886 5885 5883
5904 5904 5903 5903 5902 5901 5901 5900 5900 5900 5899 5899 5899 5898 5898 5898 5898 5898 5897 5897 5896 5895 5895 5895 5895 5894 5894 5893 5893 5892 5892 5891 5890 5889 5889 5888 5887 5886 5885 5884 5883 5882 5880
5902 5902 5902 5901 5901 5900 5900 5899 5899 5899 5898 5898 5898 5897 5897 5897 5896 5896 5896 5895 5894 5894 5894 5893 5893 5892 5892 5891 5891 5890 5889 5889 5888 5887 5886 5885 5884 5883 5882 5881 5880 5878 5877
5901 5901 5900 5899 5899 5898 5898 5898 5897 5897 5897 5896 5896 5896 5895 5895 5895 5894 5894 5893 5893 5892 5891 5891 5890 5890 5889 5889 5888 5887 5886 5886 5885 5884 5883 5882 5881 5880 5879 5878 5876 5875 5873